Location: Byhalia Creek
(34.8270°N, 89.8040°W)
Time: 20:50:34
(UTC+00:00)

H-2A R/B - Pass Details

Date: 22 April 2026
Orbit: 730 x 829 km, 98.3° (Epoch: 21 May)

Event Time Altitude Azimuth Distance (km) Brightness Sun altitude
Rises 08:02:55 0° 27° (NNE) 3,265 6.3 -34.4°
Reaches altitude 10° 08:05:36 10° 41° (NE) 2,351 5.3 -34.0°
Maximum altitude 08:09:52 25° 96° (E) 1,556 3.8 -33.5°
Enters shadow 08:10:01 25° 99° (E) 1,558 3.8 -33.4°
